FW8149 Weather Reports


time (UTC)temp
C
wind
direction
speed
KPH
gust
KPH
rain 1hr
cm
rain 24hr
cm
rain mn
cm
humidity
%
barometer
mb
20260505192017 14 49 0.0 1.6 0.00 0.00 0.00 63 1011.8
20260505191525 14 49 0.0 1.6 0.00 0.00 0.00 63 1011.8
20260505191016 14 49 0.0 1.6 0.00 0.00 0.00 64 1011.7
20260505190518 14 44 0.0 3.2 0.00 0.00 0.00 63 1011.7
20260505190117 14 44 0.0 3.2 0.00 0.00 0.00 63 1011.7
20260505185516 14 42 0.0 4.8 0.00 0.00 0.00 62 1011.8
20260505185016 14 42 0.0 4.8 0.00 0.00 0.00 62 1011.8
20260505184516 14 42 0.0 3.2 0.00 0.00 0.00 62 1011.7
20260505184016 14 42 0.0 4.8 0.00 0.00 0.00 62 1011.6
20260505183516 14 42 0.0 4.8 0.00 0.00 0.00 62 1011.5
20260505183020 14 42 1.6 4.8 0.00 0.00 0.00 62 1011.5
20260505182515 14 32 0.0 4.8 0.00 0.00 0.00 62 1011.6
20260505182015 15 57 0.0 4.8 0.00 0.00 0.00 61 1011.4
20260505181521 15 38 0.0 6.4 0.00 0.00 0.00 61 1011.5
20260505181014 15 51 1.6 6.4 0.00 0.00 0.00 61 1011.5
20260505180514 15 59 1.6 6.4 0.00 0.00 0.00 61 1011.5
20260505180014 15 71 1.6 6.4 0.00 0.00 0.00 61 1011.5
20260505175514 15 66 0.0 6.4 0.00 0.00 0.00 60 1011.5
20260505175015 15 68 0.0 3.2 0.00 0.00 0.00 60 1011.5
20260505174513 15 82 0.0 3.2 0.00 0.00 0.00 60 1011.5
20260505174013 15 80 0.0 6.4 0.00 0.00 0.00 60 1011.5
20260505173517 15 73 1.6 9.7 0.00 0.00 0.00 59 1011.5
20260505173014 15 84 1.6 9.7 0.00 0.00 0.00 59 1011.6
20260505172613 15 37 0.0 3.2 0.00 0.00 0.00 59 1011.6
20260505172015 15 43 0.0 9.7 0.00 0.00 0.00 58 1011.5
20260505171513 15 171 0.0 8.0 0.00 0.00 0.00 58 1011.5
20260505171013 15 239 0.0 8.0 0.00 0.00 0.00 58 1011.4
20260505170512 16 88 0.0 4.8 0.00 0.00 0.00 57 1011.5
20260505170014 16 13 0.0 6.4 0.00 0.00 0.00 58 1011.6
20260505165511 16 34 0.0 8.0 0.00 0.00 0.00 57 1011.5
20260505165011 16 44 1.6 4.8 0.00 0.00 0.00 57 1011.5
20260505164511 16 44 0.0 6.4 0.00 0.00 0.00 57 1011.5
20260505164010 16 46 0.0 8.0 0.00 0.00 0.00 57 1011.4
20260505163510 16 57 1.6 8.0 0.00 0.00 0.00 56 1011.4
20260505163010 16 42 3.2 4.8 0.00 0.00 0.00 56 1011.5
20260505162610 16 64 0.0 8.0 0.00 0.00 0.00 56 1011.5
20260505162008 16 81 0.0 8.0 0.00 0.00 0.00 56 1011.4
20260505161523 16 78 0.0 4.8 0.00 0.00 0.00 56 1011.5
20260505161007 16 58 0.0 4.8 0.00 0.00 0.00 56 1011.5
20260505160510 16 38 0.0 3.2 0.00 0.00 0.00 56 1011.5
20260505153004 16 94 1.6 6.4 0.00 0.00 0.00 56 1011.7
20260505152501 16 22 0.0 6.4 0.00 0.00 0.00 55 1011.8
20260505152001 16 22 1.6 8.0 0.00 0.00 0.00 55 1011.8
20260505151503 16 49 1.6 8.0 0.00 0.00 0.00 55 1011.8
20260505151001 16 59 3.2 8.0 0.00 0.00 0.00 55 1011.8
20260505150502 17 45 3.2 8.0 0.00 0.00 0.00 55 1011.8
20260505140556 18 52 1.6 8.0 0.00 0.00 0.00 54 1012.0
20260505124550 17 64 4.8 12.9 0.00 0.00 0.00 54 1012.6
20260505124044 17 49 3.2 11.3 0.00 0.00 0.00 55 1012.5
20260505123545 17 14 3.2 11.3 0.00 0.00 0.00 55 1012.5
20260505123044 17 101 0.0 9.7 0.00 0.00 0.00 56 1012.5
20260505122545 17 43 3.2 9.7 0.00 0.00 0.00 56 1012.6
20260505122043 17 33 4.8 9.7 0.00 0.00 0.00 55 1012.6
20260505121544 17 53 4.8 9.7 0.00 0.00 0.00 55 1012.6
20260505121043 17 69 0.0 6.4 0.00 0.00 0.00 55 1012.5
20260505120543 17 65 0.0 11.3 0.00 0.00 0.00 57 1012.6
20260505120043 17 97 3.2 11.3 0.00 0.00 0.00 57 1012.6
20260505115542 17 40 4.8 12.9 0.00 0.00 0.00 58 1012.5
20260505115042 17 41 4.8 12.9 0.00 0.00 0.00 59 1012.6
20260505114542 17 268 3.2 12.9 0.00 0.00 0.00 58 1012.5
20260505114041 17 355 4.8 11.3 0.00 0.00 0.00 58 1012.7
20260505113539 17 44 3.2 14.5 0.00 0.00 0.00 58 1012.7
20260505113041 17 61 4.8 16.1 0.00 0.00 0.00 57 1012.7
20260505112540 17 38 4.8 12.9 0.00 0.00 0.00 57 1012.9
20260505112039 17 53 6.4 14.5 0.00 0.00 0.00 57 1012.8
20260505111540 17 27 4.8 14.5 0.00 0.00 0.00 58 1012.9
20260505111040 17 42 3.2 14.5 0.00 0.00 0.00 58 1012.9
20260505110538 17 65 3.2 11.3 0.00 0.00 0.00 58 1012.9
20260505102032 17 28 6.4 12.9 0.00 0.00 0.00 59 1013.1
20260505101537 17 34 4.8 9.7 0.00 0.00 0.00 61 1013.1
20260505101030 17 188 1.6 9.7 0.00 0.00 0.00 62 1013.2
20260505100528 16 207 1.6 8.0 0.00 0.00 0.00 63 1013.2
20260505100027 16 26 0.0 12.9 0.00 0.00 0.00 66 1013.3
20260505095526 15 52 3.2 12.9 0.00 0.00 0.00 66 1013.2
20260505095024 15 57 3.2 12.9 0.00 0.00 0.00 67 1013.1
20260505094524 15 35 6.4 12.9 0.00 0.00 0.00 66 1013.3
20260505094022 15 25 4.8 11.3 0.00 0.00 0.00 68 1013.2
20260505093520 15 29 4.8 12.9 0.00 0.00 0.00 69 1013.2
20260505093020 14 51 6.4 12.9 0.00 0.00 0.00 68 1013.2
20260505092519 14 36 3.2 9.7 0.00 0.00 0.00 69 1013.2
20260505092019 14 36 3.2 9.7 0.00 0.00 0.00 70 1013.2
20260505091518 14 29 3.2 12.9 0.00 0.00 0.00 70 1013.3
20260505091018 14 340 6.4 12.9 0.00 0.00 0.00 70 1013.4
20260505090517 14 27 4.8 16.1 0.00 0.00 0.00 70 1013.4
20260505090033 14 78 6.4 16.1 0.00 0.00 0.00 70 1013.4
20260505085513 14 54 4.8 16.1 0.00 0.00 0.00 72 1013.6
20260505085012 13 49 0.0 8.0 0.00 0.00 0.00 74 1013.5
20260505084511 13 28 1.6 9.7 0.00 0.00 0.00 74 1013.5
20260505084010 12 44 3.2 9.7 0.00 0.00 0.00 75 1013.5
20260505083509 12 66 3.2 8.0 0.00 0.00 0.00 75 1013.5
20260505083004 12 47 1.6 8.0 0.00 0.00 0.00 75 1013.6
20260505082603 12 93 1.6 9.7 0.00 0.00 0.00 75 1013.5
20260505081528 12 55 3.2 12.9 0.00 0.00 0.00 76 1013.5
20260505081006 12 40 3.2 12.9 0.00 0.00 0.00 76 1013.5
20260505080520 12 51 1.6 9.7 0.00 0.00 0.00 77 1013.5
20260505080009 12 60 3.2 8.0 0.00 0.00 0.00 77 1013.4
20260505075522 12 42 3.2 9.7 0.00 0.00 0.00 78 1013.5
20260505075109 12 95 6.4 11.3 0.00 0.00 0.00 78 1013.4
20260505074507 12 38 4.8 11.3 0.00 0.00 0.00 77 1013.5
20260505074007 12 51 3.2 12.9 0.00 0.00 0.00 77 1013.4
20260505073607 12 44 4.8 12.9 0.00 0.00 0.00 77 1013.4
20260505073010 12 42 6.4 14.5 0.00 0.00 0.00 76 1013.3
20260505072506 12 13 6.4 14.5 0.00 0.00 0.00 75 1013.3
20260505072005 12 41 0.0 6.4 0.00 0.00 0.00 77 1013.4
20260505071505 12 40 3.2 6.4 0.00 0.00 0.00 77 1013.4
20260505071004 12 46 1.6 8.0 0.00 0.00 0.00 77 1013.4
20260505070503 12 38 3.2 8.0 0.00 0.00 0.00 78 1013.5
20260505070003 12 17 1.6 4.8 0.00 0.00 0.00 79 1013.6
20260505065502 12 33 1.6 6.4 0.00 0.00 0.00 79 1013.6
20260505065001 12 34 1.6 6.4 0.00 0.00 0.00 80 1013.6
20260505064601 12 24 1.6 6.4 0.00 0.00 0.00 80 1013.6
20260505064100 12 39 0.0 4.8 0.00 0.00 0.00 82 1013.6
20260505063558 11 56 1.6 4.8 0.00 0.00 0.00 82 1013.7
20260505063058 11 40 1.6 6.4 0.00 0.00 0.00 82 1013.7
20260505062557 11 38 1.6 8.0 0.00 0.00 0.00 82 1013.6
20260505062057 11 26 1.6 8.0 0.00 0.00 0.00 82 1013.7
20260505061557 11 55 1.6 8.0 0.00 0.00 0.00 83 1013.7
20260505061058 11 51 3.2 6.4 0.00 0.00 0.00 84 1013.8
20260505060556 11 46 1.6 6.4 0.00 0.00 0.00 84 1013.7
20260505060058 11 48 1.6 6.4 0.00 0.00 0.00 84 1013.7
20260505055556 11 59 0.0 6.4 0.00 0.00 0.00 84 1013.7
20260505055058 11 43 1.6 12.9 0.00 0.00 0.00 84 1013.7
20260505054558 11 51 4.8 12.9 0.00 0.00 0.00 84 1013.6
20260505054054 11 82 3.2 6.4 0.00 0.00 0.00 85 1013.7
20260505053552 11 40 1.6 8.0 0.00 0.00 0.00 85 1013.7
20260505053052 11 26 0.0 4.8 0.00 0.00 0.00 85 1013.7
20260505052552 11 52 1.6 8.0 0.00 0.00 0.00 85 1013.7
20260505052050 11 53 1.6 8.0 0.00 0.00 0.00 85 1013.8
20260505051549 11 27 0.0 4.8 0.00 0.00 0.00 85 1013.7
20260505051049 11 28 0.0 6.4 0.00 0.00 0.00 85 1013.9
20260505050547 11 46 0.0 6.4 0.00 0.00 0.00 85 1013.8
20260505041544 11 73 0.0 3.2 0.00 0.00 0.00 86 1013.9
20260505041042 11 73 0.0 0.0 0.00 0.00 0.00 86 1013.8
20260505040542 11 75 0.0 0.0 0.00 0.00 0.00 86 1013.8
20260505040042 11 75 0.0 1.6 0.00 0.00 0.00 86 1013.7
20260505035541 11 75 0.0 4.8 0.00 0.00 0.00 86 1013.8
20260505035041 11 78 0.0 4.8 0.00 0.00 0.00 86 1013.9
20260505034541 11 80 0.0 4.8 0.00 0.00 0.00 86 1013.9
20260505034040 11 68 0.0 3.2 0.00 0.00 0.00 86 1013.9
20260505033540 11 69 0.0 4.8 0.00 0.00 0.00 86 1013.9
20260505033043 11 71 0.0 1.6 0.00 0.00 0.00 86 1013.9
20260505032542 11 71 0.0 1.6 0.00 0.00 0.00 86 1013.8
20260505032039 11 71 0.0 6.4 0.00 0.00 0.00 86 1013.9
20260505031552 11 82 0.0 4.8 0.00 0.00 0.00 86 1014.0
20260505031040 11 105 0.0 3.2 0.00 0.00 0.00 86 1014.0
20260505030539 11 105 0.0 3.2 0.00 0.00 0.00 86 1013.9
20260505030039 11 107 0.0 3.2 0.00 0.00 0.00 86 1013.9
20260505025538 11 162 0.0 3.2 0.00 0.00 0.00 86 1014.1
20260505025038 11 162 0.0 3.2 0.00 0.00 0.00 86 1014.0
20260505024547 11 192 0.0 4.8 0.00 0.00 0.00 86 1014.1
20260505024037 11 65 0.0 6.4 0.00 0.00 0.00 86 1014.0
20260505023536 11 65 0.0 4.8 0.00 0.00 0.00 86 1014.1
20260505023041 11 62 0.0 6.4 0.00 0.00 0.00 86 1014.0
20260505022536 11 55 0.0 6.4 0.00 0.00 0.00 85 1014.0
20260505022036 11 62 0.0 4.8 0.00 0.00 0.00 85 1014.1
20260505021536 11 73 0.0 6.4 0.00 0.00 0.00 85 1014.1
20260505021034 11 63 0.0 4.8 0.00 0.00 0.00 85 1014.0
20260505020534 11 67 0.0 3.2 0.00 0.00 0.00 85 1014.2
20260505020034 11 66 0.0 4.8 0.00 0.00 0.00 85 1014.3
20260505015534 11 67 0.0 4.8 0.00 0.00 0.00 85 1014.1
20260505015034 11 67 0.0 4.8 0.00 0.00 0.00 85 1014.0
20260505014546 11 67 0.0 6.4 0.00 0.00 0.00 85 1014.1
20260505014033 11 55 0.0 4.8 0.00 0.00 0.00 85 1014.2
20260505013533 11 65 0.0 11.3 0.00 0.00 0.00 85 1014.4
20260505013032 11 32 0.0 11.3 0.00 0.00 0.00 84 1014.3
20260505012531 11 57 1.6 6.4 0.00 0.00 0.00 84 1014.4
20260505012030 11 101 0.0 6.4 0.00 0.00 0.00 84 1014.3
20260505011530 11 51 0.0 6.4 0.00 0.00 0.00 84 1014.5
20260505011028 11 29 0.0 9.7 0.00 0.00 0.00 84 1014.5
20260505010527 12 88 0.0 9.7 0.00 0.00 0.00 84 1014.5
20260505010027 12 17 0.0 6.4 0.00 0.00 0.00 84 1014.6
20260505005527 12 148 0.0 9.7 0.00 0.00 0.00 84 1014.6
20260505005027 12 202 0.0 9.7 0.00 0.00 0.00 84 1014.6
20260505004527 12 215 0.0 4.8 0.00 0.00 0.00 84 1014.7
20260505004026 12 63 0.0 3.2 0.00 0.00 0.00 84 1014.6
20260505003530 12 81 0.0 3.2 0.00 0.00 0.00 84 1014.7
20260505003025 12 82 0.0 9.7 0.00 0.00 0.00 84 1014.7
20260505002525 12 107 0.0 9.7 0.00 0.00 0.00 83 1014.7
20260505002025 12 62 0.0 8.0 0.00 0.00 0.00 83 1014.6
20260505001524 12 64 3.2 8.0 0.00 0.00 0.00 83 1014.6
20260505001022 12 81 1.6 6.4 0.00 0.00 0.00 83 1014.7
20260505000522 12 72 1.6 6.4 0.00 0.00 0.00 83 1014.8
20260505000022 12 51 0.0 6.4 0.00 0.00 0.00 83 1014.8
20260504235521 12 63 0.0 4.8 0.00 0.00 0.00 83 1014.8
20260504235021 12 94 0.0 4.8 0.00 0.00 0.00 83 1014.8
20260504234520 12 192 0.0 6.4 0.00 0.00 0.00 82 1014.8
20260504234019 13 107 0.0 14.5 0.00 0.00 0.00 81 1014.8
20260504233519 13 63 3.2 14.5 0.00 0.00 0.00 80 1014.7
20260504233018 13 36 4.8 12.9 0.00 0.00 0.00 79 1014.8
20260504232518 13 34 3.2 14.5 0.00 0.00 0.00 79 1014.8
20260504232016 13 51 3.2 14.5 0.00 0.00 0.00 79 1014.9
20260504231517 13 40 3.2 11.3 0.00 0.00 0.00 79 1014.9
20260504231015 13 25 3.2 12.9 0.00 0.00 0.00 78 1014.9
20260504230514 13 51 3.2 9.7 0.00 0.00 0.00 78 1014.9
20260504230014 13 30 3.2 12.9 0.00 0.00 0.00 78 1015.0
20260504225515 13 51 4.8 14.5 0.00 0.00 0.00 78 1014.8
20260504225013 13 35 6.4 14.5 0.00 0.00 0.00 78 1014.9
20260504224514 13 21 1.6 12.9 0.00 0.00 0.00 78 1014.9
20260504224013 13 34 4.8 12.9 0.00 0.00 0.00 78 1014.9
20260504223515 13 51 6.4 12.9 0.00 0.00 0.00 78 1014.9
20260504223013 13 38 4.8 11.3 0.00 0.00 0.00 78 1014.9
20260504222513 13 63 3.2 8.0 0.00 0.00 0.00 78 1014.9
20260504222012 13 26 4.8 9.7 0.00 0.00 0.00 78 1014.9
20260504221512 13 33 4.8 11.3 0.00 0.00 0.00 79 1015.0
20260504221012 13 24 3.2 9.7 0.00 0.00 0.00 79 1015.0
20260504220515 13 26 3.2 14.5 0.00 0.00 0.00 79 1015.0
20260504220012 13 71 4.8 14.5 0.00 0.00 0.00 80 1014.9
20260504215512 13 50 3.2 6.4 0.00 0.00 0.00 82 1015.0
20260504215011 13 40 1.6 4.8 0.00 0.00 0.00 82 1014.9
20260504214511 13 34 1.6 4.8 0.00 0.00 0.00 82 1015.0
20260504214014 13 90 0.0 4.8 0.00 0.00 0.00 82 1015.0
20260504213514 13 46 0.0 3.2 0.00 0.00 0.00 81 1015.1
20260504213018 13 45 0.0 3.2 0.00 0.00 0.00 81 1015.1
20260504212511 13 44 0.0 1.6 0.00 0.00 0.00 81 1015.1
20260504212015 13 44 0.0 3.2 0.00 0.00 0.00 81 1015.0
20260504211515 13 44 0.0 4.8 0.00 0.00 0.00 81 1015.0
20260504211010 13 47 0.0 6.4 0.00 0.00 0.00 81 1015.0
20260504210510 13 65 1.6 6.4 0.00 0.00 0.00 80 1015.0
20260504210012 13 71 0.0 6.4 0.00 0.00 0.00 80 1015.0
20260504205510 13 76 1.6 6.4 0.00 0.00 0.00 80 1015.1
20260504205010 13 62 0.0 4.8 0.00 0.00 0.00 80 1015.0
20260504204521 14 95 0.0 6.4 0.00 0.00 0.00 80 1015.0
20260504204009 14 37 0.0 6.4 0.00 0.00 0.00 80 1015.0
20260504203509 14 34 0.0 8.0 0.00 0.00 0.00 79 1015.1
20260504203136 14 85 1.6 8.0 0.00 0.00 0.00 78 1015.2
20260504202509 14 44 0.0 8.0 0.00 0.00 0.00 78 1015.1
20260504202008 14 46 0.0 9.7 0.00 0.00 0.00 78 1015.1
20260504201508 14 45 1.6 9.7 0.00 0.00 0.00 78 1015.0
20260504201008 14 41 1.6 6.4 0.00 0.00 0.00 78 1015.0
20260504200507 14 61 0.0 6.4 0.00 0.00 0.00 78 1014.9
20260504200007 14 80 0.0 4.8 0.00 0.00 0.00 78 1015.0
20260504195506 14 44 0.0 4.8 0.00 0.00 0.00 78 1014.9
20260504195006 14 44 1.6 4.8 0.00 0.00 0.00 78 1014.8
20260504194507 14 42 0.0 8.0 0.00 0.00 0.00 78 1014.8
20260504194007 14 42 0.0 8.0 0.00 0.00 0.00 78 1014.8
20260504193506 14 54 3.2 8.0 0.00 0.00 0.00 78 1014.6
20260504193005 14 42 1.6 9.7 0.00 0.00 0.00 77 1014.6
20260504192504 14 28 1.6 9.7 0.00 0.00 0.00 77 1014.6